Location: Karcze
(52.0945°N, 22.4786°E)
Time: 12:41:58
(UTC+00:00)

Meteor 1-28 Rocket - Pass Details

Date: 14 July 2020
Orbit: 505 x 522 km, 97.3° (Epoch: 07 August)

Event Time Altitude Azimuth Distance (km) Brightness Sun altitude
Rises 00:56:40 0° 155° (SSE) 2,602 6.4 -10.1°
Reaches altitude 10° 00:58:45 10° 152° (SSE) 1,723 5.6 -10.0°
Maximum altitude 01:02:24 59° 73° (ENE) 597 3.8 -9.7°
Drops below altitude 10° 01:06:06 10° 353° (N) 1,746 6.6 -9.3°
Sets 01:08:14 0° 350° (N) 2,641 7.5 -9.1°
